sat.trackr.live / text

‹ back to catalog

STARLINK-34415

NORAD 64618 · 2025-137AA

PAYLOAD ACTIVE UNKNOWN

§ Identity

Operator
Country
US
Launch date
2025-06-25
Launch site
AFETR
Launch vehicle
Mass (kg)
RCS (m²)

Purposes: comms

External: N2YO · Heavens-Above · Gunter

§ Orbital elements

Epoch: 2026-05-24T20:04:27.679872Z

Period
94.11 min
Inclination
53.1595°
Eccentricity
0.0000751
Mean motion
15.30199218 rev/d
Perigee alt
474.7 km
Apogee alt
475.7 km
Semi-major
6,853.4 km
B*
6.2240e-4
RAAN
341.5110°
Arg perigee
84.8754°
Mean anomaly
275.2333°
Rev number
5,239

§ Raw data

STARLINK-344151 64618U 25137AA  26144.83643148  .00018119  00000+0  62240-3 0  99932 64618  53.1595 341.5110 0000751  84.8754 275.2333 15.30199218 52392

JSON: /api/v1/satellites/64618 · /tle

For live sub-satellite position, see the globe view (requires WebGL).

§ Visibility from observer

Set your observer location to see the next 7 days of passes ≥ 10°. The values pass through the URL so the page stays shareable.

No JS? Fill the form by hand. The geolocation button needs JavaScript.